Location: Potomac Astrometric Observatory
(39.0475°N, 77.2064°W)
Time: 16:06:57
(UTC-04:00)

ISS - Visible Passes

Search period start: 16 July 2018 00:00
Search period end: 26 July 2018 00:00
Orbit: 402 x 408 km, 51.6° (Epoch: 17 July)

Date Brightness Start Highest point End Pass type
(mag) Time Alt. Az. Time Alt. Az. Time Alt. Az.
16 Jul -0.6 01:09:47 14° NNE 01:09:47 14° NNE 01:10:30 10° NNE visible
16 Jul -0.6 04:21:29 10° NNW 04:23:08 13° NNE 04:24:48 10° NE visible
17 Jul -0.4 01:52:05 10° NNW 01:53:01 11° N 01:53:57 10° N visible
17 Jul -0.3 03:29:53 10° N 03:30:44 11° N 03:31:34 10° NNE visible
17 Jul -1.6 05:05:07 10° NW 05:08:04 29° NNE 05:11:01 10° E visible
18 Jul -0.5 01:00:30 13° NNW 01:00:36 13° NNW 01:02:20 10° NNE visible
18 Jul -0.9 04:13:18 10° NNW 04:15:48 20° NNE 04:18:18 10° ENE visible
18 Jul -3.6 22:28:09 10° SW 22:35:07 - NE 22:30:46 53° SSW visible
19 Jul -0.9 00:07:06 15° NW 00:08:14 18° NNW 00:10:35 10° NNE visible
19 Jul -0.5 03:21:32 10° NNW 03:23:27 14° NNE 03:25:21 10° NE visible
19 Jul -3.3 04:57:10 10° NW 05:00:27 65° NE 05:03:43 10° ESE visible
19 Jul -3.3 21:36:21 10° SSW 21:39:23 36° SE 21:42:25 10° ENE visible
19 Jul -1.5 23:13:06 10° W 23:15:55 26° NNW 23:18:45 10° NNE visible
20 Jul -0.1 00:52:48 10° NNW 00:53:18 10° N 00:53:48 10° N visible
20 Jul -0.2 02:29:51 10° N 02:31:01 11° NNE 02:32:11 10° NNE visible
20 Jul -2.1 04:05:12 10° NW 04:08:16 35° NNE 04:11:20 10° E visible
20 Jul -2.6 22:20:32 10° WSW 22:23:40 43° NNW 22:26:50 10° NE visible
20 Jul -0.3 23:59:24 10° NW 00:00:50 12° NNW 00:02:17 10° NNE visible
21 Jul -1.2 03:13:18 10° NNW 03:16:00 22° NNE 03:18:40 10° E visible
21 Jul -3.6 04:49:27 10° WNW 04:52:38 47° SW 04:55:48 10° SSE visible
21 Jul -3.8 21:28:14 10° SW 21:31:30 83° NW 21:34:48 10° NE visible
21 Jul -0.6 23:06:17 10° WNW 23:08:25 16° NNW 23:10:33 10° NNE visible
22 Jul -0.7 02:21:29 10° NNW 02:23:38 16° NNE 02:25:46 10° ENE visible
22 Jul -3.9 03:57:14 10° NW 04:00:32 83° NE 04:03:50 10° SE visible
22 Jul -1.2 22:13:23 10° W 22:16:03 22° NNW 22:18:42 10° NNE visible
23 Jul -0.4 01:29:43 10° NNW 01:30:48 12° N 01:30:48 12° N visible
23 Jul -2.0 21:20:41 10° W 21:23:44 35° NNW 21:26:47 10° NE visible
23 Jul -0.4 22:59:50 10° NNW 23:00:58 11° NNW 23:02:07 10° N visible
24 Jul -0.3 00:38:12 10° N 00:38:41 10° N 00:39:10 10° NNE visible
24 Jul -0.7 22:06:36 10° NW 22:08:29 14° NNW 22:10:23 10° NNE visible
25 Jul -0.9 21:13:34 10° WNW 21:16:03 20° NNW 21:18:32 10° NNE visible
